Louisburg, NC

9:53 PM EDT on March 24, 2017 (GMT -0400)
Franklin County

Weather History for KLHZ - January, 2014

Change the Weather History Date:

Friday, January 3, 2014

  Actual Average (KRDU) Record (KRDU)
Temperature  
Mean Temperature 34 °F -  
Max Temperature 44 °F 49 °F 74 °F (2000)
Min Temperature 23 °F 31 °F 9 °F (1887)
Degree Days  
Heating Degree Days 32    
Moisture  
Dew Point 14 °F    
Average Humidity 49    
Maximum Humidity 81    
Minimum Humidity 28    
Precipitation  
Precipitation 0.00 in - - ()
Sea Level Pressure  
Sea Level Pressure 30.18 in    
Wind  
Wind Speed 8 mph (NW)    
Max Wind Speed 17 mph    
Max Gust Speed 26 mph    
Visibility 10 miles    
Events      
Averages and records for this station are not official NWS values.
T = Trace of Precipitation, MM = Missing Value Source: NWS Daily Summary

Daily Weather History Graph

Daily Weather History Graph

Search for Another Location

Airport or City:

Trip Planner

Search our weather history database for the weather conditions in past years. The results will help you decide how hot, cold, wet, or windy it might be!

Date:

Astronomy

Jan. 03, 2014 Rise Set
Actual Time 7:24 AM EST 5:11 PM EST
Civil Twilight 6:55 AM EST 5:40 PM EST
Nautical Twilight 6:23 AM EST 6:12 PM EST
Astronomical Twilight 5:52 AM EST 6:43 PM EST
Moon 8:54 AM EST (1/3) 8:12 PM EST (1/3)
Length of Visible Light 10h 44m
Length of Day
9h 47m
Waxing Crescent, 8% of the Moon is Illuminated
Jan 3
Waxing Crescent
Jan 7
First Quarter
Jan 15
Full
Jan 24
Last Quarter
Jan 30
New

Hourly Weather History & Observations

Time (EST) Temp. Windchill Dew Point Humidity Pressure Visibility Wind Dir Wind Speed Gust Speed Precip Events Conditions
12:15 AM 44.6 °F 39.7 °F 39.2 °F 81% 29.64 in 10.0 mi NW 9.2 mph - N/A   Overcast
12:35 AM 44.6 °F 40.2 °F 37.4 °F 76% 29.65 in 10.0 mi NW 8.1 mph 16.1 mph N/A   Overcast
12:55 AM 44.6 °F 40.7 °F 35.6 °F 71% 29.66 in 10.0 mi NW 6.9 mph 18.4 mph N/A   Overcast
1:15 AM 44.6 °F 40.7 °F 33.8 °F 66% 29.66 in 10.0 mi WNW 6.9 mph 16.1 mph N/A   Overcast
1:35 AM 42.8 °F 38.6 °F 33.8 °F 70% 29.67 in 10.0 mi WNW 6.9 mph - N/A   Overcast
1:55 AM 42.8 °F 37.0 °F 32.0 °F 66% 29.70 in 10.0 mi WNW 10.4 mph 17.3 mph N/A   Overcast
2:15 AM 42.8 °F 37.0 °F 32.0 °F 66% 29.72 in 10.0 mi WNW 10.4 mph 18.4 mph N/A   Overcast
2:35 AM 41.0 °F 34.7 °F 28.4 °F 61% 29.75 in 10.0 mi WNW 10.4 mph 21.9 mph N/A   Overcast
2:55 AM 39.2 °F 32.5 °F 26.6 °F 61% 29.77 in 10.0 mi West 10.4 mph 19.6 mph N/A   Overcast
3:15 AM 37.4 °F 31.4 °F 24.8 °F 60% 29.79 in 10.0 mi WNW 8.1 mph - N/A   Mostly Cloudy
3:35 AM 35.6 °F 28.0 °F 21.2 °F 56% 29.81 in 10.0 mi WNW 10.4 mph 20.7 mph N/A   Scattered Clouds
3:55 AM 35.6 °F 28.0 °F 21.2 °F 56% 29.84 in 10.0 mi NW 10.4 mph 23.0 mph N/A   Scattered Clouds
4:15 AM 33.8 °F 23.9 °F 17.6 °F 52% 29.86 in 10.0 mi NW 15.0 mph 25.3 mph N/A   Clear
4:35 AM 33.8 °F 24.8 °F 17.6 °F 52% 29.88 in 10.0 mi NW 12.7 mph 26.5 mph N/A   Clear
4:55 AM 32.0 °F 23.6 °F 15.8 °F 51% 29.91 in 10.0 mi NW 10.4 mph 17.3 mph N/A   Clear
5:15 AM 32.0 °F 25.6 °F 14.0 °F 48% 29.93 in 10.0 mi NW 6.9 mph 17.3 mph N/A   Clear
5:35 AM 32.0 °F 20.8 °F 14.0 °F 48% 29.95 in 10.0 mi WNW 17.3 mph 26.5 mph N/A   Clear
5:55 AM 32.0 °F 23.0 °F 10.4 °F 41% 29.97 in 10.0 mi WNW 11.5 mph 24.2 mph N/A   Clear
6:15 AM 30.2 °F 19.3 °F 8.6 °F 40% 30.00 in 10.0 mi NW 15.0 mph 25.3 mph N/A   Clear
6:35 AM 30.2 °F 20.2 °F 8.6 °F 40% 30.04 in 10.0 mi NNW 12.7 mph 21.9 mph N/A   Clear
6:55 AM 30.2 °F 21.9 °F 8.6 °F 40% 30.06 in 10.0 mi NW 9.2 mph 16.1 mph N/A   Clear
7:15 AM 30.2 °F 20.8 °F 8.6 °F 40% 30.08 in 10.0 mi NNW 11.5 mph 26.5 mph N/A   Clear
7:35 AM 28.4 °F 18.0 °F 6.8 °F 40% 30.10 in 10.0 mi NNW 12.7 mph 26.5 mph N/A   Clear
7:55 AM 28.4 °F 21.2 °F 6.8 °F 40% 30.12 in 10.0 mi NW 6.9 mph 20.7 mph N/A   Clear
8:15 AM 30.2 °F 22.6 °F 6.8 °F 37% 30.15 in 10.0 mi NW 8.1 mph 17.3 mph N/A   Clear
8:35 AM 30.2 °F 19.3 °F 6.8 °F 37% 30.18 in 10.0 mi NW 15.0 mph 23.0 mph N/A   Clear
8:55 AM 30.2 °F 23.4 °F 6.8 °F 37% 30.17 in 10.0 mi NW 6.9 mph 21.9 mph N/A   Clear
9:15 AM 30.2 °F 21.3 °F 6.8 °F 37% 30.19 in 10.0 mi NNW 10.4 mph 21.9 mph N/A   Clear
9:35 AM 32.0 °F 24.2 °F 8.6 °F 38% 30.20 in 10.0 mi NNW 9.2 mph 20.7 mph N/A   Clear
9:55 AM 32.0 °F 23.6 °F 5.0 °F 32% 30.22 in 10.0 mi NNW 10.4 mph 19.6 mph N/A   Clear
10:15 AM 32.0 °F 23.0 °F 8.6 °F 38% 30.23 in 10.0 mi North 11.5 mph 20.7 mph N/A   Clear
10:35 AM 32.0 °F 23.0 °F 6.8 °F 35% 30.25 in 10.0 mi NW 11.5 mph 19.6 mph N/A   Clear
10:55 AM 32.0 °F 27.5 °F 8.6 °F 38% 30.26 in 10.0 mi NW 4.6 mph - N/A   Clear
11:15 AM 33.8 °F 27.7 °F 8.6 °F 35% 30.25 in 10.0 mi NW 6.9 mph - N/A   Clear
11:35 AM 33.8 °F 25.3 °F 6.8 °F 32% 30.26 in 10.0 mi North 11.5 mph 20.7 mph N/A   Clear
11:55 AM 33.8 °F 25.3 °F 6.8 °F 32% 30.25 in 10.0 mi North 11.5 mph 20.7 mph N/A   Clear
12:15 PM 33.8 °F 24.8 °F 5.0 °F 30% 30.26 in 10.0 mi North 12.7 mph 21.9 mph N/A   Clear
12:35 PM 33.8 °F 29.6 °F 6.8 °F 32% 30.27 in 10.0 mi NW 4.6 mph - N/A   Clear
12:55 PM 33.8 °F 27.7 °F 5.0 °F 30% 30.28 in 10.0 mi NW 6.9 mph 16.1 mph N/A   Clear
1:15 PM 35.6 °F 29.9 °F 6.8 °F 30% 30.28 in 10.0 mi NNW 6.9 mph - N/A   Clear
1:35 PM 35.6 °F 29.9 °F 6.8 °F 30% 30.29 in 10.0 mi NW 6.9 mph - N/A   Clear
1:55 PM 35.6 °F 29.9 °F 6.8 °F 30% 30.30 in 10.0 mi NNW 6.9 mph 16.1 mph N/A   Clear
2:15 PM 35.6 °F 30.7 °F 6.8 °F 30% 30.31 in 10.0 mi NNW 5.8 mph - N/A   Clear
2:35 PM 35.6 °F 29.2 °F 5.0 °F 28% 30.31 in 10.0 mi North 8.1 mph 16.1 mph N/A   Clear
2:55 PM 35.6 °F 30.7 °F 5.0 °F 28% 30.31 in 10.0 mi NNW 5.8 mph - N/A   Clear
3:15 PM 35.6 °F 28.6 °F 5.0 °F 28% 30.32 in 10.0 mi North 9.2 mph - N/A   Clear
3:35 PM 35.6 °F 30.7 °F 5.0 °F 28% 30.32 in 10.0 mi NNW 5.8 mph - N/A   Clear
3:55 PM 35.6 °F 32.8 °F 5.0 °F 28% 30.33 in 10.0 mi NNW 3.5 mph - N/A   Clear
4:15 PM 35.6 °F 31.7 °F 5.0 °F 28% 30.34 in 10.0 mi North 4.6 mph - N/A   Clear
4:35 PM 35.6 °F 32.8 °F 5.0 °F 28% 30.34 in 10.0 mi North 3.5 mph - N/A   Clear
4:55 PM 33.8 °F 30.8 °F 5.0 °F 30% 30.35 in 10.0 mi NNW 3.5 mph - N/A   Clear
5:15 PM 33.8 °F - 8.6 °F 35% 30.36 in 10.0 mi Calm Calm - N/A   Clear
5:35 PM 32.0 °F - 8.6 °F 38% 30.37 in 10.0 mi Calm Calm - N/A   Clear
5:55 PM 32.0 °F - 10.4 °F 41% 30.38 in 10.0 mi Calm Calm - N/A   Clear
6:15 PM 30.2 °F - 14.0 °F 51% 30.40 in 10.0 mi Calm Calm - N/A   Clear
6:35 PM 28.4 °F - 14.0 °F 55% 30.41 in 10.0 mi Calm Calm - N/A   Clear
6:55 PM 28.4 °F - 14.0 °F 55% 30.42 in 10.0 mi Calm Calm - N/A   Clear
7:15 PM 28.4 °F - 15.8 °F 59% 30.43 in 10.0 mi Calm Calm - N/A   Clear
7:35 PM 28.4 °F - 17.6 °F 64% 30.44 in 10.0 mi Calm Calm - N/A   Clear
7:55 PM 26.6 °F - 17.6 °F 69% 30.45 in 10.0 mi Calm Calm - N/A   Clear
8:15 PM 26.6 °F - 15.8 °F 64% 30.45 in 10.0 mi Calm Calm - N/A   Clear
8:35 PM 26.6 °F - 17.6 °F 69% 30.45 in 10.0 mi Calm Calm - N/A   Clear
8:55 PM 26.6 °F - 14.0 °F 59% 30.45 in 10.0 mi Calm Calm - N/A   Clear
9:15 PM 26.6 °F - 15.8 °F 64% 30.46 in 10.0 mi Calm Calm - N/A   Clear
9:35 PM 26.6 °F - 15.8 °F 64% 30.46 in 10.0 mi Calm Calm - N/A   Clear
9:55 PM 24.8 °F - 17.6 °F 74% 30.46 in 10.0 mi Calm Calm - N/A   Clear
10:15 PM 23.0 °F - 17.6 °F 80% 30.46 in 10.0 mi Calm Calm - N/A   Clear
10:35 PM 23.0 °F - 17.6 °F 80% 30.47 in 10.0 mi Calm Calm - N/A   Clear
10:55 PM 23.0 °F - 17.6 °F 80% 30.47 in 10.0 mi Calm Calm - N/A   Clear
11:15 PM 23.0 °F - 15.8 °F 74% 30.47 in 10.0 mi Calm Calm - N/A   Clear
11:35 PM 23.0 °F - 17.6 °F 80% 30.48 in 10.0 mi Calm Calm - N/A   Clear
11:55 PM 23.0 °F - 17.6 °F 80% 30.48 in 10.0 mi Calm Calm - N/A   Clear